When you browse on this site, cookies collect data to enhance your experience and personalize the content and advertising you see.
Visit our Privacy Policy to learn more. By continuing to use the site, you agree to this use of cookies and data.
  • Em Portugal
  • Lista de países
  • Para 7 dias
  • Temperatura da água
  • Mapas de satélite
  • Mapa do tempo
  • Widgets de tempo
  • user-avatar
    Iniciar Sessão

    Previsão horária em Mohnachi

    Hoje, 16 Janeiro, Quarta-feira

    Tempo Temperatura Precipitação Vento Pressão Humidade
    00:00 -12°C° 0 mm 2 m/s 727 mmHg 96%
    01:00 -12°C° 0 mm 2 m/s 727 mmHg 96%
    02:00 -12°C° 0 mm 2 m/s 727 mmHg 96%
    03:00 -12°C° 0 mm 2 m/s 727 mmHg 96%
    04:00 -12°C° 0 mm 2 m/s 727 mmHg 96%
    05:00 -12°C° 0 mm 2 m/s 728 mmHg 95%
    06:00 -13°C° 0 mm 2 m/s 728 mmHg 95%
    07:00 -13°C° 0 mm 2 m/s 728 mmHg 95%
    08:00 -14°C° 0 mm 3 m/s 729 mmHg 95%
    09:00 -13°C° 0 mm 3 m/s 729 mmHg 95%
    10:00 -10°C° 0 mm 3 m/s 730 mmHg 95%
    11:00 -9°C° 0 mm 4 m/s 730 mmHg 94%
    12:00 -9°C° 0 mm 4 m/s 731 mmHg 92%
    13:00 -8°C° 0 mm 4 m/s 732 mmHg 91%
    14:00 -7°C° 0 mm 4 m/s 732 mmHg 89%
    15:00 -7°C° 0 mm 4 m/s 733 mmHg 89%
    16:00 -7°C° 0 mm 4 m/s 733 mmHg 90%
    17:00 -7°C° 0 mm 4 m/s 734 mmHg 90%
    18:00 -8°C° 0 mm 4 m/s 734 mmHg 91%
    19:00 -8°C° 0 mm 3 m/s 735 mmHg 93%
    20:00 -10°C° 0 mm 3 m/s 735 mmHg 95%
    21:00 -12°C° 0 mm 3 m/s 735 mmHg 95%
    22:00 -13°C° 0 mm 3 m/s 735 mmHg 96%
    23:00 -14°C° 0 mm 3 m/s 736 mmHg 96%

    Amanhã, 17 Janeiro, Quinta-feira

    Tempo Temperatura Precipitação Vento Pressão Humidade
    00:00 -13°C° 0 mm 3 m/s 736 mmHg 95%
    01:00 -14°C° 0 mm 4 m/s 735 mmHg 94%
    02:00 -14°C° 0 mm 4 m/s 735 mmHg 94%
    03:00 -13°C° 0.1 mm 5 m/s 735 mmHg 93%
    04:00 -12°C° 0.1 mm 6 m/s 734 mmHg 93%
    05:00 -11°C° 0.1 mm 7 m/s 734 mmHg 93%
    06:00 -9°C° 0.1 mm 7 m/s 734 mmHg 93%
    07:00 -8°C° 0.1 mm 7 m/s 733 mmHg 93%
    08:00 -7°C° 0.1 mm 7 m/s 733 mmHg 93%
    09:00 -6°C° 0.3 mm 8 m/s 732 mmHg 93%
    10:00 -5°C° 0.3 mm 8 m/s 732 mmHg 92%
    11:00 -4°C° 0.3 mm 8 m/s 731 mmHg 92%
    12:00 -4°C° 0.4 mm 9 m/s 731 mmHg 92%
    13:00 -3°C° 0.4 mm 9 m/s 730 mmHg 93%
    14:00 -3°C° 0.4 mm 9 m/s 729 mmHg 93%
    15:00 -3°C° 0.1 mm 9 m/s 729 mmHg 91%
    16:00 -3°C° 0.1 mm 9 m/s 729 mmHg 89%
    17:00 -3°C° 0.1 mm 9 m/s 729 mmHg 88%
    18:00 -3°C° 0.2 mm 9 m/s 729 mmHg 88%
    19:00 -3°C° 0.2 mm 9 m/s 729 mmHg 88%
    20:00 -2°C° 0.2 mm 8 m/s 729 mmHg 88%
    21:00 -2°C° 0 mm 8 m/s 729 mmHg 88%
    22:00 -2°C° 0 mm 7 m/s 730 mmHg 87%
    23:00 -2°C° 0 mm 7 m/s 730 mmHg 87%

    Depois de amanhã, 18 Janeiro, Sexta-feira

    Tempo Temperatura Precipitação Vento Pressão Humidade
    00:00 -2°C° 0 mm 7 m/s 730 mmHg 87%
    01:00 -2°C° 0 mm 7 m/s 731 mmHg 88%
    02:00 -2°C° 0 mm 7 m/s 731 mmHg 89%
    03:00 -2°C° 0 mm 6 m/s 731 mmHg 89%
    04:00 -2°C° 0 mm 6 m/s 731 mmHg 90%
    05:00 -3°C° 0 mm 6 m/s 731 mmHg 91%
    06:00 -2°C° 0.2 mm 6 m/s 731 mmHg 91%
    07:00 -2°C° 0.2 mm 6 m/s 730 mmHg 92%
    08:00 -2°C° 0.2 mm 6 m/s 730 mmHg 92%
    09:00 -2°C° 0.2 mm 7 m/s 730 mmHg 90%
    10:00 -2°C° 0.2 mm 8 m/s 730 mmHg 89%
    11:00 -3°C° 0.2 mm 9 m/s 730 mmHg 87%
    12:00 -4°C° 0 mm 8 m/s 730 mmHg 86%
    13:00 -5°C° 0 mm 8 m/s 730 mmHg 84%
    14:00 -4°C° 0 mm 7 m/s 730 mmHg 83%
    15:00 -5°C° 0.3 mm 6 m/s 730 mmHg 87%
    16:00 -5°C° 0.3 mm 6 m/s 731 mmHg 90%
    17:00 -5°C° 0.3 mm 5 m/s 732 mmHg 93%
    18:00 -7°C° 0.1 mm 5 m/s 733 mmHg 91%
    19:00 -9°C° 0.1 mm 6 m/s 734 mmHg 88%
    20:00 -12°C° 0.1 mm 7 m/s 735 mmHg 85%
    21:00 -11°C° 0 mm 6 m/s 736 mmHg 87%
    22:00 -12°C° 0 mm 6 m/s 737 mmHg 88%
    23:00 -12°C° 0 mm 5 m/s 738 mmHg 90%

    19 Janeiro, Sábado

    Tempo Temperatura Precipitação Vento Pressão Humidade
    00:00 -11°C° 0 mm 5 m/s 739 mmHg 90%
    01:00 -10°C° 0 mm 6 m/s 739 mmHg 90%
    02:00 -9°C° 0 mm 6 m/s 740 mmHg 90%
    03:00 -10°C° 0 mm 6 m/s 740 mmHg 89%
    04:00 -10°C° 0 mm 6 m/s 740 mmHg 88%
    05:00 -11°C° 0 mm 6 m/s 740 mmHg 87%
    06:00 -11°C° 0 mm 5 m/s 741 mmHg 88%
    07:00 -11°C° 0 mm 5 m/s 741 mmHg 88%
    08:00 -11°C° 0 mm 5 m/s 742 mmHg 89%
    09:00 -11°C° 0 mm 5 m/s 742 mmHg 89%
    10:00 -10°C° 0 mm 6 m/s 742 mmHg 90%
    11:00 -9°C° 0 mm 6 m/s 743 mmHg 90%
    12:00 -7°C° 0 mm 5 m/s 743 mmHg 89%
    13:00 -7°C° 0 mm 5 m/s 743 mmHg 87%
    14:00 -7°C° 0 mm 5 m/s 743 mmHg 86%
    15:00 -8°C° 0 mm 4 m/s 743 mmHg 86%
    16:00 -9°C° 0 mm 4 m/s 743 mmHg 87%
    17:00 -10°C° 0 mm 4 m/s 743 mmHg 88%
    18:00 -10°C° 0 mm 4 m/s 743 mmHg 88%
    19:00 -11°C° 0 mm 4 m/s 743 mmHg 89%
    20:00 -11°C° 0 mm 4 m/s 744 mmHg 90%
    21:00 -11°C° 0 mm 4 m/s 743 mmHg 91%
    22:00 -11°C° 0 mm 5 m/s 743 mmHg 92%
    23:00 -11°C° 0 mm 5 m/s 743 mmHg 92%

    20 Janeiro, Domingo

    Tempo Temperatura Precipitação Vento Pressão Humidade
    00:00 -11°C° 0 mm 5 m/s 743 mmHg 93%
    01:00 -11°C° 0 mm 5 m/s 743 mmHg 93%
    02:00 -11°C° 0 mm 5 m/s 743 mmHg 93%
    03:00 -10°C° 0.1 mm 5 m/s 743 mmHg 93%
    04:00 -10°C° 0.1 mm 5 m/s 743 mmHg 92%
    05:00 -9°C° 0.1 mm 4 m/s 742 mmHg 92%
    06:00 -8°C° 0.1 mm 4 m/s 742 mmHg 93%
    07:00 -8°C° 0.1 mm 4 m/s 742 mmHg 93%
    08:00 -7°C° 0.1 mm 3 m/s 742 mmHg 94%
    09:00 -7°C° 0.1 mm 3 m/s 742 mmHg 93%
    10:00 -7°C° 0.1 mm 4 m/s 742 mmHg 93%
    11:00 -7°C° 0.1 mm 4 m/s 743 mmHg 93%
    12:00 -7°C° 0.1 mm 4 m/s 742 mmHg 92%
    13:00 -7°C° 0.1 mm 4 m/s 742 mmHg 91%
    14:00 -7°C° 0.1 mm 4 m/s 742 mmHg 91%
    15:00 -7°C° 0 mm 3 m/s 742 mmHg 92%
    16:00 -8°C° 0 mm 3 m/s 741 mmHg 93%
    17:00 -9°C° 0 mm 3 m/s 741 mmHg 94%
    18:00 -9°C° 0 mm 3 m/s 741 mmHg 94%
    19:00 -9°C° 0 mm 3 m/s 741 mmHg 95%
    20:00 -10°C° 0 mm 3 m/s 741 mmHg 95%
    21:00 -10°C° 0 mm 3 m/s 741 mmHg 94%
    22:00 -10°C° 0 mm 3 m/s 741 mmHg 94%
    23:00 -9°C° 0 mm 2 m/s 742 mmHg 94%

    21 Janeiro, Segunda-feira

    Tempo Temperatura Precipitação Vento Pressão Humidade
    00:00 -10°C° 0 mm 2 m/s 741 mmHg 93%
    01:00 -10°C° 0 mm 2 m/s 741 mmHg 93%
    02:00 -12°C° 0 mm 2 m/s 741 mmHg 93%
    03:00 -10°C° 0 mm 2 m/s 741 mmHg 93%
    04:00 -10°C° 0 mm 2 m/s 741 mmHg 94%
    05:00 -9°C° 0 mm 2 m/s 741 mmHg 95%
    06:00 -9°C° 0 mm 2 m/s 741 mmHg 95%
    07:00 -8°C° 0 mm 1 m/s 741 mmHg 96%
    08:00 -8°C° 0 mm 1 m/s 741 mmHg 96%
    09:00 -8°C° 0 mm 1 m/s 741 mmHg 96%
    10:00 -7°C° 0 mm 1 m/s 742 mmHg 95%
    11:00 -7°C° 0 mm 1 m/s 742 mmHg 94%
    12:00 -8°C° 0 mm 2 m/s 742 mmHg 93%
    13:00 -8°C° 0 mm 2 m/s 742 mmHg 93%
    14:00 -9°C° 0 mm 3 m/s 742 mmHg 92%
    15:00 -10°C° 0 mm 3 m/s 742 mmHg 93%
    16:00 -9°C° 0 mm 2 m/s 743 mmHg 94%
    17:00 -9°C° 0 mm 2 m/s 743 mmHg 95%
    18:00 -10°C° 0 mm 2 m/s 743 mmHg 95%
    19:00 -13°C° 0 mm 3 m/s 744 mmHg 95%
    20:00 -13°C° 0 mm 3 m/s 744 mmHg 95%
    21:00 -14°C° 0 mm 3 m/s 744 mmHg 94%
    22:00 -15°C° 0 mm 3 m/s 744 mmHg 93%
    23:00 -15°C° 0 mm 3 m/s 745 mmHg 92%
    Mostrar mais